Location: Bakov nad Jizerou
(50.4784°N, 14.9394°E)
Time: 01:39:35
(UTC+00:00)

Cosmos 1867 - Visible Passes

Search period start: 25 October 2021 00:00
Search period end: 04 November 2021 00:00
Orbit: 773 x 803 km, 65.0° (Epoch: 24 October)

Date Brightness Start Highest point End Pass type
(mag) Time Alt. Az. Time Alt. Az. Time Alt. Az.
25 Oct 6.4 03:33:47 10° SSE 03:37:12 17° ESE 03:40:38 10° ENE visible
26 Oct 6.5 03:03:32 10° SE 03:05:46 13° ESE 03:08:00 10° E visible
26 Oct 4.1 04:42:57 10° SSW 04:48:21 66° SE 04:53:48 10° NE visible
27 Oct 4.5 04:11:27 10° SSW 04:16:43 51° ESE 04:22:02 10° NE visible
28 Oct 4.9 03:40:05 10° S 03:45:07 40° ESE 03:50:13 10° NE visible
29 Oct 5.3 03:08:51 10° S 03:13:34 31° ESE 03:18:18 10° NE visible
29 Oct 3.7 04:51:28 10° SW 04:56:53 61° NW 05:02:20 10° NE visible
30 Oct 5.6 02:38:33 13° SSE 02:42:02 24° ESE 02:46:19 10° ENE visible
30 Oct 3.5 04:19:39 10° SW 04:25:07 75° NW 04:30:39 10° NE visible
31 Oct 5.8 02:08:53 16° SE 02:10:33 18° ESE 02:14:09 10° ENE visible
31 Oct 3.6 03:49:37 21° SW 03:53:25 87° SE 03:58:57 10° NE visible
01 Nov 6.2 01:39:00 13° ESE 01:39:06 13° ESE 01:41:38 10° ENE visible
01 Nov 3.8 03:19:42 39° SSW 03:21:44 70° SE 03:27:13 10° NE visible
01 Nov 4.4 05:00:49 10° W 05:05:46 34° NNW 05:10:46 10° NNE visible
02 Nov 4.1 02:49:38 52° SE 02:50:05 54° ESE 02:55:27 10° NE visible
02 Nov 4.2 04:30:21 19° W 04:33:54 40° NW 04:39:05 10° NNE visible
03 Nov 4.8 02:19:27 38° E 02:19:27 38° E 02:23:38 10° NE visible
03 Nov 3.9 04:00:08 34° W 04:02:04 47° NW 04:07:24 10° NE visible
